Wind_Speed
12 11 11 11 11 10 10 9 9 8 8 8 8 8 8 7 7 7 7 7 7 6 6 5 5 5 5 5 5 4 4 4 3 3 3 3 3 3 3 3 3 3 4
13 13 13 13 13 12 12 11 11 10 10 9 9 9 9 9 9 8 8 8 7 7 7 7 7 7 7 6 6 5 5 5 5 4 4 5 5 4 4 4 4 4 4
14 14 15 15 14 14 14 13 13 12 12 11 11 11 11 11 10 10 10 9 9 8 8 8 8 8 8 8 7 7 7 6 6 6 6 6 5 5 5 5 5 5 4
15 15 16 16 15 15 15 15 15 14 14 14 13 13 13 12 12 11 11 10 10 10 10 9 9 9 9 9 9 9 8 8 7 7 7 7 6 6 6 6 6 6 5
16 15 16 16 16 16 16 16 16 16 15 15 15 15 14 14 13 13 12 12 12 12 12 12 11 11 11 11 10 10 10 10 9 9 8 8 8 8 8 7 7 6 6
16 16 16 17 17 17 17 17 17 17 16 16 16 16 16 15 15 15 14 14 14 14 14 13 13 12 12 12 12 12 11 11 10 10 10 10 10 9 9 9 9 8 7
18 17 17 18 18 18 18 18 18 17 17 17 17 17 17 16 16 16 16 16 16 16 15 15 15 14 14 14 14 13 13 12 12 12 12 11 11 11 11 10 10 9 9
19 19 19 19 19 19 19 19 18 18 18 19 19 18 18 18 18 18 18 18 18 17 17 17 17 16 16 16 16 15 15 14 14 14 14 13 13 13 12 12 12 11 10
21 21 20 20 20 20 20 20 20 20 20 20 20 20 20 20 19 19 19 18 18 18 18 19 18 18 18 18 17 17 16 16 16 16 16 15 15 14 14 13 13 13 12
23 23 22 22 21 22 22 22 22 22 22 21 21 21 21 21 20 20 20 20 20 20 20 20 20 20 19 19 19 18 18 18 18 18 18 17 17 17 16 15 15 15 14
24 24 24 24 23 23 23 23 24 24 24 23 23 23 23 23 23 22 22 22 22 22 21 22 22 22 22 21 21 20 20 19 19 19 19 19 19 18 18 18 17 17 17
26 26 25 25 25 25 25 25 25 25 25 25 25 25 25 25 24 24 23 23 23 23 23 23 23 24 24 23 22 22 22 21 21 21 21 20 20 20 20 20 19 19 18
28 28 28 28 27 28 27 27 27 27 27 27 27 27 26 26 26 25 25 26 25 25 24 25 25 26 26 25 24 24 23 23 23 23 23 23 22 22 22 21 21 20 20
30 30 30 30 30 30 30 29 29 29 29 29 29 28 28 27 27 27 28 28 28 27 26 26 26 27 27 27 26 26 26 25 25 25 25 25 25 25 24 23 23 22 22
31 31 31 32 32 32 32 32 31 31 31 30 30 30 30 30 29 29 29 30 30 30 29 28 29 29 29 28 28 28 28 28 28 27 27 27 27 27 27 26 25 24 23
33 33 33 34 34 34 34 34 34 34 33 33 33 33 32 32 32 31 31 31 32 32 32 31 31 31 31 31 30 30 30 30 29 29 28 28 28 28 28 28 27 26 25
35 35 35 36 36 36 36 36 36 36 36 36 36 35 35 34 34 34 34 34 33 34 34 34 33 33 33 32 32 32 31 31 31 30 30 30 29 29 28 28 29 28 28
38 37 37 37 37 37 37 37 37 38 38 38 38 38 37 37 37 37 36 35 35 36 35 35 35 35 35 35 34 33 33 33 32 32 31 31 30 30 29 29 29 30 30
39 39 39 39 39 39 39 39 40 40 40 40 40 40 39 39 39 39 38 38 37 37 37 37 37 36 36 36 35 35 34 35 34 33 33 33 33 32 31 30 30 31 31
41 41 41 41 41 41 41 41 42 42 42 42 42 41 41 41 40 40 40 40 39 39 39 39 38 38 38 37 37 37 36 36 36 35 34 34 34 34 33 32 32 32 32
43 43 43 43 44 44 43 43 43 43 43 44 44 43 43 43 42 42 41 41 41 41 40 40 40 40 40 39 39 39 38 37 37 36 36 36 35 35 34 34 33 33 34
45 45 45 45 45 46 45 45 45 45 45 45 45 45 45 45 44 43 43 43 43 43 43 42 42 42 42 41 40 40 40 39 38 38 37 37 37 37 36 35 35 35 35
46 46 46 46 47 47 47 47 47 47 47 47 47 47 47 47 46 45 45 45 44 44 44 44 44 43 43 42 41 41 41 41 40 39 39 39 39 38 38 37 37 37 37
47 47 47 48 48 49 49 49 48 48 48 48 47 48 49 49 48 48 47 46 46 45 45 45 45 45 44 44 43 43 43 43 42 41 40 40 39 40 40 39 39 39 39
48 48 49 49 50 49 50 50 50 49 49 49 48 49 50 50 50 50 49 48 47 46 46 45 46 46 46 45 44 44 44 43 44 43 42 42 41 41 42 41 41 41 42
48 48 49 49 50 50 50 50 51 51 51 51 50 51 51 51 51 51 50 50 48 48 47 46 46 47 47 46 46 45 45 44 44 43 43 44 43 43 44 43 43 43 43
Wind_Direction
252 252 253 255 255 256 257 258 258 260 259 261 266 272 276 281 286 295 300 296 292 289 281 274 270 268 267 269 270 266 267 264 257 259 261 259 259 261 264 259 258 259 258
254 254 254 255 256 259 261 260 258 258 258 260 263 266 269 273 277 283 288 288 283 284 280 270 266 268 269 269 270 267 266 258 253 257 261 261 260 261 260 256 261 264 267
254 256 256 257 257 259 261 261 259 259 259 260 262 265 268 270 273 276 278 281 279 277 278 270 264 264 267 267 267 267 267 261 255 257 258 262 259 257 259 261 263 264 272
255 256 258 258 259 258 259 260 261 261 260 260 262 264 266 267 269 271 273 275 275 271 272 269 264 263 263 265 267 267 267 264 258 256 259 260 257 257 263 265 264 265 269
256 257 259 260 260 260 259 260 261 260 259 259 261 261 263 265 266 268 269 271 271 269 267 267 263 262 261 262 265 266 266 262 258 257 259 258 257 259 263 264 264 265 268
257 258 259 261 262 261 261 260 260 260 259 260 260 261 261 262 265 267 268 269 269 268 265 265 263 261 261 261 263 264 265 261 258 257 258 256 257 259 261 263 265 265 264
258 259 261 263 263 263 263 262 261 260 260 261 261 261 261 262 263 265 266 266 266 266 263 263 263 262 261 261 262 264 262 259 258 258 259 258 257 258 260 263 264 262 261
258 259 262 263 264 264 263 262 262 261 261 261 261 261 261 262 263 263 264 264 264 264 262 261 263 261 261 260 261 262 260 260 260 260 259 259 259 259 260 262 263 261 260
257 258 261 263 264 264 263 262 263 263 262 262 261 261 261 262 262 262 262 262 263 263 262 260 261 260 260 260 260 259 259 260 261 262 261 260 260 260 260 259 260 260 260
258 258 259 261 263 263 264 263 262 263 263 262 261 261 262 262 262 261 261 262 263 263 261 259 258 257 259 261 261 260 260 261 260 260 261 261 261 261 261 261 260 260 259
257 259 259 260 261 263 264 263 262 262 262 262 262 262 262 261 261 261 262 262 262 262 261 258 256 258 259 262 262 261 260 260 260 259 259 259 260 260 260 260 260 258 258
256 259 260 260 260 262 263 263 262 262 262 262 262 262 262 261 260 261 262 263 262 261 262 259 258 258 260 261 262 262 260 259 259 259 258 259 259 260 260 259 258 257 257
256 258 259 260 261 261 262 262 263 262 262 263 263 262 261 261 261 261 262 262 261 261 262 261 260 259 259 261 262 262 261 260 259 260 259 258 259 260 260 259 259 258 256
257 258 259 260 261 261 261 262 263 263 263 263 263 263 262 261 261 261 261 261 260 259 261 262 260 259 259 260 261 260 260 260 261 261 260 259 259 260 260 260 259 258 256
257 258 259 261 262 262 261 262 262 263 263 263 263 263 263 262 262 262 261 260 259 259 261 263 263 261 260 260 260 260 261 261 262 261 261 260 260 259 259 259 258 257 256
257 258 259 260 261 262 262 262 262 262 262 263 263 263 263 263 262 262 262 261 261 260 261 262 263 262 261 260 260 260 261 262 260 260 260 261 261 259 259 257 256 255 255
258 259 259 260 261 262 262 262 262 261 262 263 263 262 263 263 263 263 263 262 261 261 260 262 263 264 262 261 261 261 261 260 260 260 259 260 260 258 258 256 254 252 253
259 260 260 260 261 261 262 262 262 261 262 262 263 262 262 263 263 263 262 262 261 261 260 261 263 264 264 263 262 260 259 259 260 259 258 258 259 258 257 256 253 251 251
259 260 260 260 261 261 261 262 262 262 262 262 262 262 262 262 263 263 263 262 261 261 260 260 262 264 264 263 261 260 260 259 258 259 257 257 258 258 257 256 254 252 250
259 260 261 261 261 261 261 261 262 262 262 262 262 262 262 262 262 262 262 262 261 261 261 261 261 263 263 263 261 260 261 260 259 258 258 257 257 257 257 256 253 251 250
259 260 261 261 262 262 261 261 262 262 262 262 262 262 262 262 261 261 261 261 261 261 262 262 262 262 262 263 261 261 260 260 260 259 258 257 256 256 255 254 253 251 249
260 260 261 262 262 262 262 262 262 262 262 262 262 262 262 261 262 261 261 261 262 262 262 263 262 262 261 261 261 261 260 259 258 258 257 257 255 255 255 254 253 251 250
261 261 261 262 262 262 263 263 262 262 262 263 263 262 262 261 261 260 260 260 261 263 263 262 262 261 260 260 261 261 260 259 258 257 256 255 255 254 254 254 253 252 251
260 261 261 262 262 262 262 262 262 262 262 263 263 262 261 261 260 260 260 261 261 263 263 263 262 261 260 260 260 260 260 260 260 257 254 253 254 254 254 254 254 253 252
261 261 261 262 262 262 261 261 261 261 261 263 264 263 261 260 259 260 260 260 261 262 262 262 262 261 260 260 260 260 260 260 260 258 255 254 254 255 255 255 255 254 253
261 261 261 261 261 261 261 261 261 261 262 263 264 263 261 259 259 259 259 260 260 261 262 262 261 261 260 259 260 260 260 259 259 258 256 255 255 255 256 256 255 255 254
Height
5831 5831 5832 5833 5833 5834 5834 5835 5835 5836 5837 5837 5838 5839 5840 5840 5840 5841 5842 5842 5842 5843 5843 5844 5845 5845 5846 5846 5846 5847 5847 5848 5848 5848 5849 5849 5850 5850 5851 5851 5851 5851 5852
5828 5829 5830 5830 5831 5832 5832 5833 5833 5834 5835 5835 5836 5837 5838 5838 5839 5839 5840 5841 5841 5842 5842 5843 5843 5844 5844 5845 5845 5846 5846 5847 5847 5848 5848 5849 5849 5849 5850 5850 5851 5851 5851
5826 5827 5827 5828 5829 5829 5830 5831 5831 5832 5832 5833 5834 5835 5836 5836 5837 5838 5838 5839 5840 5840 5841 5841 5842 5842 5843 5844 5844 5845 5845 5846 5846 5847 5847 5847 5848 5848 5849 5849 5850 5850 5850
5823 5824 5824 5825 5826 5826 5827 5828 5828 5829 5830 5831 5831 5832 5833 5834 5835 5836 5836 5837 5838 5838 5839 5839 5840 5841 5841 5842 5843 5843 5844 5844 5845 5845 5846 5846 5847 5847 5847 5848 5848 5849 5849
5820 5820 5821 5821 5822 5823 5824 5825 5825 5826 5826 5827 5828 5829 5830 5831 5832 5833 5834 5835 5835 5836 5837 5837 5838 5839 5840 5840 5841 5841 5842 5843 5843 5844 5844 5845 5845 5846 5846 5847 5847 5848 5848
5816 5817 5817 5818 5819 5820 5820 5821 5821 5822 5823 5824 5824 5826 5827 5828 5829 5830 5831 5832 5832 5833 5834 5835 5835 5836 5837 5838 5838 5839 5840 5841 5841 5842 5842 5843 5843 5844 5844 5845 5846 5846 5847
5812 5813 5814 5814 5815 5816 5816 5817 5817 5818 5819 5820 5821 5822 5823 5824 5825 5826 5827 5828 5829 5830 5831 5831 5832 5833 5834 5835 5836 5837 5837 5838 5839 5839 5840 5841 5841 5842 5842 5843 5844 5844 5845
5808 5809 5810 5810 5811 5811 5812 5813 5814 5814 5815 5816 5817 5818 5819 5820 5821 5822 5823 5824 5825 5826 5827 5828 5829 5830 5831 5832 5833 5833 5834 5835 5836 5836 5837 5838 5838 5839 5840 5840 5841 5842 5842
5804 5804 5805 5806 5807 5807 5808 5809 5809 5810 5811 5811 5812 5813 5815 5816 5817 5818 5819 5820 5821 5821 5822 5824 5825 5826 5827 5828 5829 5830 5831 5832 5832 5833 5834 5835 5835 5836 5837 5837 5838 5839 5840
5799 5800 5800 5801 5802 5803 5803 5804 5805 5806 5806 5807 5808 5809 5810 5811 5812 5813 5814 5815 5816 5817 5818 5819 5820 5821 5822 5823 5825 5826 5827 5828 5828 5829 5830 5831 5832 5832 5833 5834 5835 5836 5837
5793 5794 5795 5796 5797 5797 5798 5799 5800 5801 5801 5802 5803 5804 5805 5806 5807 5808 5809 5810 5811 5812 5813 5813 5815 5816 5818 5819 5820 5821 5822 5823 5824 5825 5826 5827 5827 5828 5829 5830 5831 5832 5833
5788 5789 5789 5790 5791 5792 5793 5793 5794 5795 5796 5797 5798 5799 5800 5801 5802 5803 5804 5805 5806 5807 5807 5808 5810 5811 5812 5814 5815 5816 5817 5818 5819 5820 5821 5822 5823 5824 5825 5826 5827 5828 5829
5782 5783 5783 5784 5785 5786 5787 5787 5788 5789 5790 5791 5792 5793 5794 5795 5796 5797 5798 5799 5800 5801 5802 5803 5804 5806 5807 5808 5809 5810 5811 5813 5814 5815 5816 5816 5817 5819 5820 5821 5822 5823 5825
5775 5776 5777 5778 5779 5779 5780 5781 5782 5782 5783 5784 5785 5786 5787 5788 5789 5791 5792 5793 5794 5795 5796 5797 5798 5799 5801 5802 5803 5804 5805 5806 5807 5808 5809 5810 5811 5812 5814 5815 5817 5818 5819
5768 5769 5770 5771 5772 5772 5773 5774 5775 5776 5776 5777 5779 5780 5781 5782 5783 5784 5785 5786 5787 5789 5790 5791 5791 5793 5794 5795 5796 5797 5798 5799 5800 5801 5802 5803 5804 5805 5807 5808 5810 5812 5813
5760 5761 5762 5763 5764 5765 5765 5766 5767 5768 5769 5770 5771 5772 5773 5774 5775 5776 5778 5779 5780 5781 5782 5783 5784 5785 5787 5788 5789 5790 5790 5791 5792 5793 5794 5795 5796 5797 5798 5800 5802 5805 5807
5752 5753 5754 5755 5756 5757 5757 5758 5759 5760 5761 5762 5763 5764 5765 5766 5767 5768 5770 5771 5772 5773 5774 5776 5776 5777 5779 5780 5781 5782 5782 5783 5784 5785 5786 5787 5788 5789 5790 5791 5794 5797 5799
5743 5744 5745 5746 5747 5748 5748 5749 5750 5751 5752 5753 5754 5755 5756 5757 5759 5760 5761 5762 5763 5764 5766 5767 5768 5769 5770 5772 5772 5773 5774 5775 5776 5777 5778 5779 5780 5781 5782 5783 5785 5788 5792
5733 5734 5735 5736 5737 5738 5739 5740 5741 5741 5743 5744 5745 5746 5747 5748 5749 5750 5752 5753 5754 5755 5756 5758 5759 5760 5761 5762 5763 5764 5765 5766 5767 5768 5769 5771 5772 5773 5775 5776 5778 5780 5783
5724 5724 5725 5726 5727 5728 5729 5730 5731 5732 5732 5734 5735 5736 5737 5738 5739 5740 5741 5743 5744 5745 5746 5748 5749 5750 5751 5752 5754 5755 5756 5757 5758 5759 5760 5762 5763 5765 5766 5768 5770 5772 5775
5713 5714 5714 5715 5716 5717 5718 5720 5720 5721 5722 5723 5724 5725 5726 5727 5728 5730 5731 5732 5733 5735 5736 5737 5739 5740 5741 5742 5744 5745 5746 5747 5748 5749 5751 5753 5754 5756 5757 5759 5761 5764 5766
5701 5702 5703 5704 5705 5706 5707 5708 5709 5710 5711 5712 5712 5714 5715 5716 5717 5718 5720 5721 5723 5724 5725 5726 5728 5729 5730 5731 5733 5734 5736 5738 5739 5740 5741 5743 5745 5747 5749 5750 5752 5755 5758
5689 5690 5691 5692 5693 5694 5695 5696 5697 5698 5699 5700 5701 5702 5702 5703 5705 5706 5708 5710 5711 5712 5714 5715 5716 5718 5719 5721 5721 5723 5725 5727 5729 5731 5732 5734 5735 5737 5739 5741 5743 5745 5748
5676 5677 5678 5679 5680 5681 5682 5683 5684 5686 5687 5688 5688 5689 5690 5691 5692 5694 5696 5697 5699 5700 5702 5703 5704 5706 5707 5709 5710 5712 5713 5715 5717 5719 5722 5723 5725 5727 5729 5731 5733 5735 5738
5663 5664 5665 5666 5667 5668 5669 5670 5671 5672 5673 5674 5675 5676 5677 5678 5679 5681 5683 5685 5686 5688 5689 5691 5692 5693 5695 5697 5699 5700 5702 5703 5704 5707 5710 5713 5714 5716 5718 5720 5722 5724 5727
5650 5651 5651 5653 5654 5654 5655 5656 5657 5659 5659 5660 5661 5662 5663 5664 5666 5667 5670 5672 5673 5675 5677 5678 5679 5681 5682 5684 5686 5688 5690 5692 5693 5694 5697 5701 5703 5705 5707 5708 5710 5713 5715